Regional Weather Roundup
Issued by NWS

Home | Current Version | Previous Version | Text Only | Print | Product List | Glossary Off
Versions: 1 2 3 4 5 6 7 8 9 10 11 12 13 14 15 16 17 18 19 20 21 22 23 24 25 26 27 28 29 30 31 32 33 34 35 36 37 38 39 40 41 42 43 44 45 46 47 48 49 50

000
ASUS43 KBIS 030810
RWRND

NORTH DAKOTA REGIONAL WEATHER ROUNDUP
NATIONAL WEATHER SERVICE BISMARCK ND
200 AM CST TUE MAR 03 2015

NOTE: "FAIR" INDICATES FEW OR NO CLOUDS BELOW 12,000 FEET WITH NO
SIGNIFICANT WEATHER AND/OR OBSTRUCTIONS TO VISIBILITY.


NDZ001>003-009>011-017-030900-
NORTHWEST NORTH DAKOTA

CITY           SKY/WX    TMP DP  RH WIND       PRES   REMARKS
WILLISTON      CLOUDY    10   0  63 NW23G32   30.01R WCI -10
MINOT          LGT SNOW  11   5  77 NW29G38   29.88S WCI -11
MINOT AFB      CLOUDY    10   7  85 NW33G39   29.87R BLWGSNOWWCI -13
$$

NDZ018>021-031>035-040>046-030900-
SOUTHWEST NORTH DAKOTA

CITY           SKY/WX    TMP DP  RH WIND       PRES   REMARKS
BISMARCK       CLOUDY    18  11  74 NW20G30   29.89R WCI   2
DICKINSON      FLURRIES  15   8  73 NW18G29   29.89R WCI  -2
GARRISON         N/A     13   6  74 NW28G41   29.88R WCI  -8
HETTINGER ARPT CLOUDY    16   8  71 N23G32    29.86R WCI  -2
$$

NDZ004>008-012>016-024-026-027-054-030900-
NORTHEAST NORTH DAKOTA

CITY           SKY/WX    TMP DP  RH WIND       PRES   REMARKS
GRAND FORKS    CLOUDY    24  18  77 SW8       29.74S WCI  15
GRND FRKS AFB  CLOUDY    24  17  74 NW14G23   29.73S WCI  12
DEVILS LAKE    MOCLDY    18  10  73 NW24G30   29.74F WCI   0
$$

NDZ022-023-025-028>030-036>039-047>053-030900-
SOUTHEAST NORTH DAKOTA

CITY           SKY/WX    TMP DP  RH WIND       PRES   REMARKS
FARGO          CLOUDY    28  21  75 S17       29.73F WCI  16
JAMESTOWN      CLOUDY    20  14  77 NW21G31   29.73F WCI   4
$$




USA.gov is the U.S. government's official web portal to all federal, state and local government web resources and services.